| time (UTC) | temp F | wind direction | speed MPH | gust MPH | rain 1hr in | rain 24hr in | rain mn in | humidity % | barometer mb |
| 20260906131811 | 97 | 132 | 2.0 | 7.0 | 0.00 | 0.00 | 0.00 | 30 | 993.5 |
| 20260906130911 | 97 | 101 | 2.0 | 7.0 | 0.00 | 0.00 | 0.00 | 31 | 993.4 |
| 20260906130011 | 97 | 131 | 2.0 | 8.0 | 0.00 | 0.00 | 0.00 | 31 | 993.5 |
| 20260906125111 | 96 | 122 | 2.0 | 8.0 | 0.00 | 0.00 | 0.00 | 32 | 993.6 |
| 20260906124211 | 96 | 239 | 3.0 | 7.0 | 0.00 | 0.00 | 0.00 | 32 | 993.6 |
| 20260906123311 | 96 | 103 | 2.0 | 8.0 | 0.00 | 0.00 | 0.00 | 31 | 993.7 |
| 20260906122411 | 95 | 169 | 5.0 | 9.0 | 0.00 | 0.00 | 0.00 | 32 | 993.7 |
| 20260906121511 | 96 | 221 | 2.0 | 11.0 | 0.00 | 0.00 | 0.00 | 31 | 993.8 |
| 20260906120611 | 94 | 152 | 2.0 | 11.0 | 0.00 | 0.00 | 0.00 | 32 | 993.8 |
| 20260906115711 | 96 | 115 | 2.0 | 8.0 | 0.00 | 0.00 | 0.00 | 31 | 993.9 |
| 20260906114811 | 94 | 106 | 4.0 | 8.0 | 0.00 | 0.00 | 0.00 | 34 | 993.9 |
| 20260906113911 | 94 | 102 | 4.0 | 11.0 | 0.00 | 0.00 | 0.00 | 33 | 993.8 |
| 20260906111211 | 101 | 193 | 2.0 | 4.0 | 0.00 | 0.00 | 0.00 | 24 | 993.8 |
| 20260906110311 | 99 | 116 | 2.0 | 7.0 | 0.00 | 0.00 | 0.00 | 24 | 993.6 |
| 20260906105411 | 99 | 253 | 1.0 | 8.0 | 0.00 | 0.00 | 0.00 | 24 | 993.7 |
| 20260906103611 | 98 | 76 | 2.0 | 7.0 | 0.00 | 0.00 | 0.00 | 24 | 993.7 |
| 20260906102711 | 98 | 286 | 1.0 | 4.0 | 0.00 | 0.00 | 0.00 | 25 | 993.7 |
| 20260906101811 | 98 | 284 | 1.0 | 4.0 | 0.00 | 0.00 | 0.00 | 25 | 993.9 |
| 20260906100911 | 96 | 285 | 3.0 | 8.0 | 0.00 | 0.00 | 0.00 | 26 | 993.9 |
| 20260906100012 | 97 | 302 | 2.0 | 7.0 | 0.00 | 0.00 | 0.00 | 25 | 993.9 |
| 20260906095111 | 97 | 105 | 1.0 | 4.0 | 0.00 | 0.00 | 0.00 | 26 | 993.9 |
| 20260906094211 | 98 | 314 | 0.0 | 8.0 | 0.00 | 0.00 | 0.00 | 25 | 994.1 |
| 20260906093311 | 94 | 289 | 4.0 | 8.0 | 0.00 | 0.00 | 0.00 | 28 | 994.1 |
| 20260906091511 | 98 | 257 | 0.0 | 4.0 | 0.00 | 0.00 | 0.00 | 25 | 994.2 |
| 20260906090611 | 94 | 173 | 3.0 | 4.0 | 0.00 | 0.00 | 0.00 | 27 | 994.2 |
| 20260906085711 | 94 | 268 | 1.0 | 6.0 | 0.00 | 0.00 | 0.00 | 27 | 994.4 |
| 20260906084811 | 94 | 172 | 2.0 | 4.0 | 0.00 | 0.00 | 0.00 | 27 | 994.3 |
| 20260906083911 | 96 | 114 | 2.0 | 4.0 | 0.00 | 0.00 | 0.00 | 26 | 994.3 |
| 20260906081211 | 94 | 107 | 2.0 | 4.0 | 0.00 | 0.00 | 0.00 | 27 | 994.3 |
| 20260906080311 | 95 | 98 | 0.0 | 2.0 | 0.00 | 0.00 | 0.00 | 26 | 994.4 |
| 20260906075411 | 95 | 118 | 1.0 | 4.0 | 0.00 | 0.00 | 0.00 | 26 | 994.4 |
| 20260906074511 | 93 | 100 | 2.0 | 4.0 | 0.00 | 0.00 | 0.00 | 27 | 994.3 |
| 20260906072711 | 93 | 248 | 1.0 | 2.0 | 0.00 | 0.00 | 0.00 | 28 | 994.3 |
| 20260906070911 | 91 | 248 | 0.0 | 2.0 | 0.00 | 0.00 | 0.00 | 30 | 994.2 |
| 20260906065111 | 88 | 248 | 0.0 | 2.0 | 0.00 | 0.00 | 0.00 | 31 | 994.0 |
| 20260906064211 | 87 | 248 | 0.0 | 2.0 | 0.00 | 0.00 | 0.00 | 32 | 994.0 |
| 20260906063311 | 87 | 248 | 0.0 | 2.0 | 0.00 | 0.00 | 0.00 | 32 | 993.8 |
| 20260906061511 | 85 | 270 | 0.0 | 2.0 | 0.00 | 0.00 | 0.00 | 35 | 993.7 |
| 20260906060611 | 84 | 292 | 0.0 | 2.0 | 0.00 | 0.00 | 0.00 | 36 | 993.6 |
| 20260906055711 | 82 | 281 | 0.0 | 2.0 | 0.00 | 0.00 | 0.00 | 37 | 993.6 |
| 20260906053911 | 82 | 292 | 0.0 | 2.0 | 0.00 | 0.00 | 0.00 | 38 | 993.5 |
| 20260906053011 | 81 | 281 | 0.0 | 4.0 | 0.00 | 0.00 | 0.00 | 38 | 993.6 |
| 20260906052111 | 80 | 289 | 0.0 | 4.0 | 0.00 | 0.00 | 0.00 | 38 | 993.6 |
| 20260906051211 | 78 | 301 | 2.0 | 4.0 | 0.00 | 0.00 | 0.00 | 39 | 993.6 |
| 20260906050311 | 77 | 285 | 1.0 | 4.0 | 0.00 | 0.00 | 0.00 | 41 | 993.7 |
| 20260906045411 | 76 | 259 | 0.0 | 2.0 | 0.00 | 0.00 | 0.00 | 41 | 993.7 |
| 20260906044512 | 76 | 248 | 0.0 | 2.0 | 0.00 | 0.00 | 0.00 | 41 | 993.7 |
| 20260906043611 | 75 | 248 | 0.0 | 2.0 | 0.00 | 0.00 | 0.00 | 41 | 993.6 |
| 20260906042711 | 75 | 248 | 0.0 | 2.0 | 0.00 | 0.00 | 0.00 | 41 | 993.4 |
| 20260906041811 | 75 | 248 | 0.0 | 2.0 | 0.00 | 0.00 | 0.00 | 41 | 993.4 |
| 20260906040011 | 75 | 254 | 0.0 | 2.0 | 0.00 | 0.00 | 0.00 | 41 | 993.2 |
| 20260906035111 | 75 | 251 | 0.0 | 2.0 | 0.00 | 0.00 | 0.00 | 41 | 993.2 |
| 20260906034211 | 75 | 237 | 1.0 | 2.0 | 0.00 | 0.00 | 0.00 | 41 | 993.1 |
| 20260906032411 | 75 | 225 | 0.0 | 2.0 | 0.00 | 0.00 | 0.00 | 41 | 992.9 |
| 20260906031511 | 75 | 237 | 0.0 | 2.0 | 0.00 | 0.00 | 0.00 | 41 | 992.9 |
| 20260906030611 | 76 | 249 | 0.0 | 2.0 | 0.00 | 0.00 | 0.00 | 41 | 992.8 |
| 20260906025711 | 75 | 248 | 0.0 | 2.0 | 0.00 | 0.00 | 0.00 | 41 | 992.9 |
| 20260906024811 | 76 | 248 | 1.0 | 2.0 | 0.00 | 0.00 | 0.00 | 41 | 992.6 |
| 20260906023911 | 76 | 248 | 0.0 | 2.0 | 0.00 | 0.00 | 0.00 | 41 | 992.5 |
| 20260906022111 | 76 | 241 | 0.0 | 2.0 | 0.00 | 0.00 | 0.00 | 41 | 992.4 |
| 20260906021211 | 76 | 248 | 0.0 | 2.0 | 0.00 | 0.00 | 0.00 | 41 | 992.5 |
| 20260906020311 | 76 | 245 | 1.0 | 2.0 | 0.00 | 0.00 | 0.00 | 40 | 992.5 |
| 20260906014511 | 76 | 255 | 0.0 | 2.0 | 0.00 | 0.00 | 0.00 | 40 | 992.5 |
| 20260906013611 | 76 | 246 | 0.0 | 2.0 | 0.00 | 0.00 | 0.00 | 40 | 992.6 |
| 20260906012711 | 76 | 0 | 0.0 | 0.0 | 0.00 | 0.00 | 0.00 | 40 | 992.5 |
| 20260906011811 | 76 | 0 | 0.0 | 0.0 | 0.00 | 0.00 | 0.00 | 40 | 992.6 |
| 20260906010911 | 76 | 270 | 0.0 | 2.0 | 0.00 | 0.00 | 0.00 | 40 | 992.7 |
| 20260906010011 | 77 | 270 | 0.0 | 2.0 | 0.00 | 0.00 | 0.00 | 40 | 992.7 |
| 20260906005111 | 77 | 270 | 0.0 | 4.0 | 0.00 | 0.00 | 0.00 | 39 | 992.7 |
| 20260906004211 | 77 | 270 | 2.0 | 4.0 | 0.00 | 0.00 | 0.00 | 40 | 992.6 |
| 20260906003311 | 77 | 270 | 0.0 | 2.0 | 0.00 | 0.00 | 0.00 | 39 | 992.6 |
| 20260906001511 | 77 | 267 | 0.0 | 2.0 | 0.00 | 0.00 | 0.00 | 39 | 992.6 |
| 20260906000611 | 77 | 270 | 0.0 | 2.0 | 0.00 | 0.00 | 0.00 | 39 | 992.6 |
| 20260905235711 | 77 | 255 | 1.0 | 2.0 | 0.00 | 0.00 | 0.00 | 39 | 992.7 |
| 20260905233911 | 78 | 241 | 0.0 | 2.0 | 0.00 | 0.00 | 0.00 | 39 | 992.7 |
| 20260905233011 | 78 | 248 | 0.0 | 2.0 | 0.00 | 0.00 | 0.00 | 39 | 992.7 |
| 20260905232111 | 79 | 241 | 0.0 | 2.0 | 0.00 | 0.00 | 0.00 | 38 | 992.9 |
| 20260905230311 | 79 | 225 | 3.0 | 4.0 | 0.00 | 0.00 | 0.00 | 38 | 993.0 |
| 20260905225411 | 78 | 225 | 0.0 | 2.0 | 0.00 | 0.00 | 0.00 | 39 | 993.0 |
| 20260905224511 | 79 | 230 | 0.0 | 2.0 | 0.00 | 0.00 | 0.00 | 38 | 993.1 |
| 20260905223611 | 79 | 248 | 0.0 | 2.0 | 0.00 | 0.00 | 0.00 | 38 | 993.2 |
| 20260905222711 | 79 | 248 | 0.0 | 2.0 | 0.00 | 0.00 | 0.00 | 38 | 993.2 |
| 20260905221811 | 79 | 0 | 0.0 | 0.0 | 0.00 | 0.00 | 0.00 | 38 | 993.0 |
| 20260905220911 | 79 | 0 | 0.0 | 0.0 | 0.00 | 0.00 | 0.00 | 38 | 993.0 |
| 20260905220011 | 79 | 248 | 0.0 | 2.0 | 0.00 | 0.00 | 0.00 | 38 | 993.1 |
| 20260905213311 | 80 | 286 | 0.0 | 2.0 | 0.00 | 0.00 | 0.00 | 37 | 993.0 |
| 20260905212411 | 80 | 292 | 0.0 | 2.0 | 0.00 | 0.00 | 0.00 | 37 | 993.1 |
| 20260905211511 | 81 | 282 | 1.0 | 2.0 | 0.00 | 0.00 | 0.00 | 37 | 993.0 |
| 20260905210611 | 80 | 0 | 0.0 | 0.0 | 0.00 | 0.00 | 0.00 | 37 | 993.0 |
| 20260905205711 | 81 | 0 | 0.0 | 0.0 | 0.00 | 0.00 | 0.00 | 37 | 993.2 |
| 20260905203911 | 82 | 292 | 0.0 | 2.0 | 0.00 | 0.00 | 0.00 | 36 | 993.0 |
| 20260905203011 | 81 | 0 | 0.0 | 0.0 | 0.00 | 0.00 | 0.00 | 37 | 992.9 |
| 20260905202111 | 81 | 0 | 0.0 | 0.0 | 0.00 | 0.00 | 0.00 | 37 | 992.8 |
| 20260905200311 | 82 | 0 | 0.0 | 0.0 | 0.00 | 0.00 | 0.00 | 35 | 993.0 |
| 20260905194511 | 83 | 0 | 0.0 | 0.0 | 0.00 | 0.00 | 0.00 | 35 | 993.1 |
| 20260905193611 | 83 | 0 | 0.0 | 0.0 | 0.00 | 0.00 | 0.00 | 34 | 993.1 |
| 20260905192711 | 83 | 292 | 0.0 | 2.0 | 0.00 | 0.00 | 0.00 | 34 | 993.1 |
| 20260905191811 | 83 | 292 | 1.0 | 2.0 | 0.00 | 0.00 | 0.00 | 34 | 993.1 |
| 20260905190911 | 84 | 297 | 0.0 | 4.0 | 0.00 | 0.00 | 0.00 | 34 | 993.0 |
| 20260905190011 | 84 | 281 | 2.0 | 4.0 | 0.00 | 0.00 | 0.00 | 34 | 993.0 |
| 20260905185111 | 83 | 298 | 0.0 | 4.0 | 0.00 | 0.00 | 0.00 | 35 | 993.1 |
| 20260905184211 | 84 | 301 | 1.0 | 4.0 | 0.00 | 0.00 | 0.00 | 35 | 993.0 |
| 20260905183311 | 84 | 285 | 1.0 | 4.0 | 0.00 | 0.00 | 0.00 | 35 | 993.0 |
| 20260905182411 | 84 | 273 | 1.0 | 4.0 | 0.00 | 0.00 | 0.00 | 35 | 992.8 |
| 20260905180611 | 85 | 286 | 1.0 | 6.0 | 0.00 | 0.00 | 0.00 | 34 | 992.6 |
| 20260905174811 | 85 | 249 | 2.0 | 4.0 | 0.00 | 0.00 | 0.00 | 34 | 992.4 |
| 20260905173011 | 85 | 248 | 2.0 | 4.0 | 0.00 | 0.00 | 0.00 | 34 | 992.3 |
| 20260905172111 | 86 | 255 | 1.0 | 4.0 | 0.00 | 0.00 | 0.00 | 34 | 992.2 |
| 20260905171211 | 86 | 237 | 2.0 | 4.0 | 0.00 | 0.00 | 0.00 | 34 | 992.0 |
| 20260905170311 | 86 | 237 | 2.0 | 4.0 | 0.00 | 0.00 | 0.00 | 34 | 992.0 |
| 20260905164511 | 88 | 218 | 3.0 | 4.0 | 0.00 | 0.00 | 0.00 | 31 | 992.0 |
| 20260905163611 | 89 | 248 | 2.0 | 8.0 | 0.00 | 0.00 | 0.00 | 30 | 992.1 |
| 20260905162711 | 90 | 257 | 2.0 | 6.0 | 0.00 | 0.00 | 0.00 | 29 | 992.1 |
| 20260905161811 | 91 | 247 | 2.0 | 4.0 | 0.00 | 0.00 | 0.00 | 28 | 992.1 |
| 20260905160911 | 91 | 250 | 2.0 | 9.0 | 0.00 | 0.00 | 0.00 | 27 | 992.2 |
| 20260905160011 | 91 | 242 | 2.0 | 6.0 | 0.00 | 0.00 | 0.00 | 27 | 992.4 |
| 20260905155111 | 93 | 260 | 2.0 | 6.0 | 0.00 | 0.00 | 0.00 | 27 | 992.4 |
| 20260905154211 | 93 | 334 | 2.0 | 13.0 | 0.00 | 0.00 | 0.00 | 25 | 992.4 |
| 20260905153311 | 91 | 298 | 4.0 | 14.0 | 0.00 | 0.00 | 0.00 | 27 | 992.4 |
| 20260905152411 | 92 | 303 | 5.0 | 17.0 | 0.00 | 0.00 | 0.00 | 27 | 992.5 |
| 20260905151511 | 93 | 276 | 3.0 | 16.0 | 0.00 | 0.00 | 0.00 | 27 | 992.6 |
| 20260905145711 | 93 | 302 | 7.0 | 13.0 | 0.00 | 0.00 | 0.00 | 27 | 992.4 |
| 20260905144811 | 94 | 319 | 2.0 | 16.0 | 0.00 | 0.00 | 0.00 | 26 | 992.4 |
| 20260905143011 | 91 | 316 | 14.0 | 23.0 | 0.00 | 0.00 | 0.00 | 28 | 992.4 |
| 20260905142111 | 91 | 294 | 14.0 | 23.0 | 0.00 | 0.00 | 0.00 | 28 | 992.3 |
| 20260905141211 | 93 | 274 | 2.0 | 18.0 | 0.00 | 0.00 | 0.00 | 27 | 992.5 |
| 20260905140311 | 93 | 300 | 6.0 | 18.0 | 0.00 | 0.00 | 0.00 | 27 | 992.4 |
| 20260905135411 | 93 | 302 | 5.0 | 17.0 | 0.00 | 0.00 | 0.00 | 27 | 992.4 |
| 20260905134511 | 92 | 312 | 8.0 | 18.0 | 0.00 | 0.00 | 0.00 | 27 | 992.5 |
| 20260905133611 | 93 | 276 | 4.0 | 15.0 | 0.00 | 0.00 | 0.00 | 29 | 992.6 |